Location: Les Thiberg�res
(47.8554°N, 1.0978°W)
Time: 09:27:15
(UTC+00:00)

ATLAS CENTAUR R/B - Pass Details

Date: 17 February 2020
Orbit: 466 x 681 km, 64.7° (Epoch: 05 April)

Event Time Altitude Azimuth Distance (km) Brightness Sun altitude
Exits shadow 03:43:11 23° 78° (ENE) 1,364 3.8 -34.6°
Drops below altitude 10° 03:45:20 10° 56° (ENE) 1,997 4.9 -34.3°
Sets 03:47:44 0° 46° (NE) 2,870 5.9 -33.9°
